Location: Newark
(50.8922°N, 11.6094°E)
Time: 20:59:05
(UTC+00:00)

N. Korean satellite - Pass Details

Date: 31 January 2020
Orbit: 456 x 505 km, 97.2° (Epoch: 26 February)

Event Time Altitude Azimuth Distance (km) Brightness Sun altitude
Rises 06:14:52 0° 1° (N) 2,557 10.0 -6.2°
Reaches altitude 10° 06:17:18 10° 344° (NNW) 1,681 9.0 -5.9°
Maximum altitude 06:20:00 20° 296° (WNW) 1,182 7.9 -5.5°
Drops below altitude 10° 06:22:43 10° 247° (WSW) 1,691 8.9 -5.1°
Sets 06:25:10 0° 231° (SW) 2,577 10.0 -4.7°
